Torna al catalogo

STARLINK-30601

AttivoComunicazioniVLEO
NORAD 58117·PAYLOAD·🇺🇸 United States

Lanciato Oct 21, 2023 da Vandenberg Space Force Base

Loading…

Prossimi Passaggi (prossime 24 ore)

TLE

AggiornatoSource: CelesTrak SupGP

Epoca: Sep 14, 2026, 22:08 UTC

1 58117C 23161W   26257.92270833 -.00009006  00000+0 -26620-3 0  2573
2 58117  53.1589   5.4816 0001243  92.3024 114.2415 15.34382280    14

Traccia STARLINK-30601 in tempo reale con AllMySat

Download on the App Store